Miscellaneous Local Product
Issued by NWS Hastings, NE

Home | Current Version | Previous Version | Graphics & Text | Print | Product List | Glossary On
Versions: 1 2 3 4 5 6 7 8 9 10 11 12 13 14 15 16 17 18 19 20 21 22 23 24 25 26 27 28 29 30 31 32 33 34 35 36 37 38 39 40 41 42 43 44 45 46 47 48 49 50
763
AXUS43 KGID 040102
MISGRI

GID CWA HOURLY WEATHER ROUNDUP
NATIONAL WEATHER SERVICE HASTINGS NE
700 PM CST SAT DEC 03 2016

NOTE: "FAIR" INDICATES FEW OR NO CLOUDS BELOW 12,000 FEET WITH NO
SIGNIFICANT WEATHER AND/OR OBSTRUCTIONS TO VISIBILITY.

...SOUTH CENTRAL NEBRASKA...

CITY           SKY/WX    TMP DP  RH WIND       PRES   REMARKS
GRAND ISLAND   CLOUDY    32  32 100 S7        30.07F WCI  26
HASTINGS       CLOUDY    32  31  96 SE7       30.07S FOG     WCI  26
KEARNEY        CLOUDY    32  28  86 S6        30.05S WCI  26
ORD            MOCLDY    33  29  85 S10       30.02R WCI  25
YORK           CLOUDY    32  32 100 CALM      30.09R FOG
AURORA         CLOUDY    32  32 100 SE7       30.06F FOG     WCI  26
LEXINGTON      CLOUDY    33  31  93 S9        30.02F WCI  25
HOLDREGE       CLOUDY    32  31  98 S7        30.04R WCI  26
HEBRON         LGT SNOW  32  32 100 CALM      30.09S

...NEBRASKA PANHANDLE...

CITY           SKY/WX    TMP DP  RH WIND       PRES   REMARKS
CHADRON        CLOUDY    30  15  53 SW6       29.96R WCI  24
ALLIANCE       CLOUDY    37  20  50 NW12      29.96R WCI  29
SCOTTSBLUFF    CLOUDY    36  13  38 W13       30.00R WCI  27
SIDNEY         CLOUDY    33  15  47 NW14      29.99R WCI  23

...WESTERN AND NORTH CENTRAL NEBRASKA...

CITY           SKY/WX    TMP DP  RH WIND       PRES   REMARKS
VALENTINE      CLEAR     26  17  68 SW7       29.94R WCI  18
AINSWORTH      PTCLDY    33  18  54 W6        29.95R WCI  27
ONEILL         CLOUDY    36  32  87 S16G22    29.99R WCI  26
BROKEN BOW     CLOUDY    35  31  85 S10       30.00S WCI  27
IMPERIAL       PTCLDY    36  26  67 SW3       29.98R
NORTH PLATTE   PTCLDY    36  30  79 S10       29.99R WCI  28
MCCOOK         CLOUDY    35  32  88 S8        30.01S WCI  29

...EASTERN NEBRASKA...

CITY           SKY/WX    TMP DP  RH WIND       PRES   REMARKS
NORFOLK        CLOUDY    33  31  92 S9        30.07F WCI  25
SO SIOUX CITY  CLOUDY    34  33  96 SE8       30.12F FOG     WCI  27
TEKAMAH        LGT SNOW  32  31  96 SE9       30.13F FOG     WCI  24
COLUMBUS       CLOUDY    32  30  93 SE7       30.09F WCI  26
ALBION         CLOUDY    33  32  96 S9        30.06F WCI  25
OMAHA EPPLEY   LGT SNOW  33  30  88 SE6       30.14F FOG     WCI  28
OFFUTT AFB     LGT SNOW  33  33 100 E6        30.13F FOG     WCI  28
MILLARD        LGT SNOW  33  32  95 CALM      30.13F
LINCOLN        LGT SNOW  33  32  96 E5        30.12F VSB 1   WCI  29
NEBRASKA CITY  LGT RAIN  32  32  99 NE3       30.12F
BEATRICE       LGT SNOW  33  33  99 SE7       30.09F WCI  27
FALLS CITY     LGT RAIN  38  36  92 E5        30.12F WCI  34

...NORTHERN KANSAS...

CITY           SKY/WX    TMP DP  RH WIND       PRES   REMARKS
GOODLAND       CLOUDY    29  25  85 S8        29.98R WCI  21
HILL CITY      CLOUDY    32  32 100 CALM      30.05F FOG
NORTON         CLOUDY    34  30  86 S5        30.03  WCI  30
PHILLIPSBURG   CLOUDY    32  32 100 CALM      30.06F FOG
SMITH CENTER   LGT SNOW  30  30 100 CALM      30.08S
BELOIT         CLOUDY    32  32 100 CALM      30.08S
HAYS           LGT SNOW  33  32  96 NE5       30.06R FOG     WCI  29
RUSSELL        LGT RAIN  36  36 100 S7        30.04S FOG     WCI  30
CONCORDIA      LGT RAIN  36  36 100 SE6       30.08F FOG     WCI  31
SALINA         LGT RAIN  40  39  97 SE6       30.10S FOG
TOPEKA         CLOUDY    43  38  82 CALM      30.11F



USA.gov is the U.S. government's official web portal to all federal, state and local government web resources and services.